Flag for U.S.A. Weather past 2 weeks in Scranton, Pennsylvania, U.S.A.

Now
51 °F

Cloudy.


Feels Like: 47 °F
Forecast: 37 / 55 °F
Wind: 10 mph from North

Location: Barre - Scranton - Wilkes-Barre / Scranton International Airport

Current Time: Apr 27, 2015 at 1:04:34 PM

Latest Report: Apr 27, 2015 at 11:54 AM


Visibility: 10 mi

Pressure: 29.74 "Hg

Humidity: 52%

Dew point: 34 °F

Location of ScrantonLocation

Historic Weather in Scranton — Graph

°F

Scranton temperature yesterday

Maximum temperature yesterday: 54 °F (at 2:54 PM)
Minimum temperature yesterday: 31 °F (at 5:54 AM)
Average temperature yesterday: 45 °F

Past Weeks' High & Low Weather Summary

 TemperatureHumidityPressure
High80 °F (Apr 18, 2:54 PM)96% (Apr 20, 11:54 PM)30.45 "Hg (Apr 20, 11:54 PM)
Low31 °F (Apr 26, 5:54 AM)16% (Apr 12, 5:54 PM)29.52 "Hg (Apr 22, 12:54 PM)
Average52 °F50%29.94 "Hg
* Reported Apr 12 11:54 AM — Apr 27 11:54 AM, Scranton, Weather by CustomWeather, © 2015

Note: Actual official high and low records may vary slightly from our data, if they occured in-between our weather recording intervals... More about our weather records

Advertising

Scranton weather history for previous 24 hours

 ConditionsComfort  
Time TempWeatherWind HumidityBarometerVisibility
11:54 AM
Mon, Apr 27
51 °FCloudy.10 mph52%29.74 "Hg10 mi
10:54 AM48 °FMostly cloudy.10 mph59%29.75 "Hg10 mi
9:54 AM46 °FMostly cloudy.No wind63%29.74 "Hg10 mi
8:54 AM45 °FMostly cloudy.6 mph63%29.74 "Hg10 mi
7:54 AM44 °FCloudy.6 mph63%29.73 "Hg10 mi
6:54 AM44 °FOvercast.No wind63%29.71 "Hg10 mi
5:54 AM44 °FOvercast.3 mph60%29.70 "Hg10 mi
4:54 AM44 °FMostly cloudy.No wind63%29.70 "Hg10 mi
3:54 AM44 °FMostly cloudy.No wind60%29.71 "Hg10 mi
2:54 AM44 °FOvercast.3 mph58%29.71 "Hg10 mi
1:54 AM45 °FOvercast.6 mph56%29.72 "Hg10 mi
12:54 AM45 °FOvercast.6 mph53%29.73 "Hg10 mi
11:54 PM
Sun, Apr 26
46 °FOvercast.8 mph50%29.72 "Hg10 mi
10:54 PM47 °FOvercast.8 mph48%29.74 "Hg10 mi
9:54 PM48 °FMostly cloudy.8 mph52%29.73 "Hg10 mi
8:54 PM49 °FOvercast.9 mph46%29.74 "Hg10 mi
7:54 PM50 °FOvercast.7 mph43%29.73 "Hg10 mi
6:54 PM51 °FOvercast.12 mph39%29.73 "Hg10 mi
5:54 PM52 °FOvercast.13 mph37%29.72 "Hg10 mi
4:54 PM53 °FOvercast.15 mph35%29.71 "Hg10 mi
3:54 PM54 °FOvercast.9 mph35%29.71 "Hg10 mi
2:54 PM54 °FOvercast.8 mph35%29.71 "Hg10 mi
1:54 PM53 °FOvercast.6 mph38%29.71 "Hg10 mi
Weather by CustomWeather, © 2015

See weather overviewHow to use our weather pages